CW9648 Weather Reports


Display with metric or nautical units.
time (UTC)temp
F
wind
direction
speed
MPH
gust
MPH
rain 1hr
in
rain 24hr
in
rain mn
in
humidity
%
barometer
mb
20260902030003 81 105 2.0 5.0 0.00 0.00 0.00 78 1015.1
20260902025503 81 88 2.0 5.0 0.00 0.00 0.00 78 1015.2
20260902025024 81 65 1.0 4.0 0.00 0.00 0.00 78 1015.1
20260902024503 81 78 1.0 4.0 0.00 0.00 0.00 78 1015.0
20260902024003 81 48 1.0 3.0 0.00 0.00 0.00 78 1015.0
20260902023503 81 57 0.0 3.0 0.00 0.00 0.00 78 1014.9
20260902023003 81 60 0.0 2.0 0.00 0.00 0.00 78 1014.8
20260902022504 81 84 1.0 4.0 0.00 0.00 0.00 78 1014.8
20260902022004 82 83 2.0 6.0 0.00 0.00 0.00 78 1014.7
20260902021525 82 85 1.0 6.0 0.00 0.00 0.00 78 1014.7
20260902021025 82 149 1.0 3.0 0.00 0.00 0.00 78 1014.7
20260902020504 82 169 1.0 2.0 0.00 0.00 0.00 78 1014.7
20260902020004 82 64 0.0 2.0 0.00 0.00 0.00 78 1014.7
20260902015525 82 56 1.0 4.0 0.00 0.00 0.00 78 1014.6
20260902015004 82 83 1.0 4.0 0.00 0.00 0.00 78 1014.5
20260902014504 82 74 1.0 3.0 0.00 0.00 0.00 78 1014.5
20260902014025 82 67 1.0 3.0 0.00 0.00 0.00 78 1014.4
20260902013504 82 73 1.0 3.0 0.00 0.00 0.00 78 1014.5
20260902013025 82 123 1.0 3.0 0.00 0.00 0.00 78 1014.6
20260902012504 82 135 1.0 3.0 0.00 0.00 0.00 78 1014.5
20260902012025 82 123 1.0 4.0 0.00 0.00 0.00 78 1014.4
20260902011504 82 96 1.0 4.0 0.00 0.00 0.00 78 1014.3
20260902011004 82 87 1.0 3.0 0.00 0.00 0.00 78 1014.2
20260902010504 82 80 1.0 4.0 0.00 0.00 0.00 78 1014.1
20260902010025 82 61 1.0 4.0 0.00 0.00 0.00 78 1014.0
20260902005525 83 60 1.0 3.0 0.00 0.00 0.00 77 1013.9
20260902005004 83 46 1.0 4.0 0.00 0.00 0.00 77 1014.0
20260902004504 83 48 2.0 7.0 0.00 0.00 0.00 77 1014.1
20260902004004 83 58 1.0 7.0 0.00 0.00 0.00 76 1014.2
20260902003504 84 71 1.0 6.0 0.00 0.00 0.00 76 1014.4
20260902003004 84 72 1.0 6.0 0.00 0.00 0.00 76 1014.4
20260902002504 84 57 1.0 5.0 0.00 0.00 0.00 76 1014.5
20260902002004 84 21 1.0 3.0 0.00 0.00 0.00 76 1014.5
20260902001525 84 38 1.0 3.0 0.00 0.00 0.00 76 1014.5
20260902001004 85 112 0.0 2.0 0.00 0.00 0.00 75 1014.6
20260902000504 85 83 0.0 2.0 0.00 0.00 0.00 75 1014.7
20260902000025 85 60 1.0 3.0 0.00 0.00 0.00 75 1014.7
20260901235504 85 116 2.0 6.0 0.00 0.00 0.00 74 1014.6
20260901235025 85 124 2.0 6.0 0.00 0.00 0.00 74 1014.7
20260901234504 85 90 1.0 4.0 0.00 0.00 0.00 74 1014.7
20260901234004 85 76 1.0 4.0 0.00 0.00 0.00 74 1014.8
20260901233504 86 88 1.0 4.0 0.00 0.00 0.00 74 1014.7
20260901233004 86 119 1.0 4.0 0.00 0.00 0.00 73 1014.7
20260901232504 86 82 1.0 3.0 0.00 0.00 0.00 73 1014.7
20260901232004 86 65 1.0 3.0 0.00 0.00 0.00 73 1014.8
20260901231504 86 100 2.0 7.0 0.00 0.00 0.00 72 1014.6
20260901231004 86 115 2.0 7.0 0.00 0.00 0.00 73 1014.7
20260901230504 86 89 1.0 4.0 0.00 0.00 0.00 73 1014.7
20260901230004 86 110 2.0 8.0 0.00 0.00 0.00 73 1014.8
20260901225504 86 104 2.0 8.0 0.00 0.00 0.00 72 1014.7
20260901225025 86 86 2.0 5.0 0.00 0.00 0.00 72 1014.7
20260901224504 86 112 2.0 6.0 0.00 0.00 0.00 72 1014.9
20260901224004 86 128 2.0 6.0 0.00 0.00 0.00 72 1014.8
20260901223525 86 107 2.0 6.0 0.00 0.00 0.00 72 1014.7
20260901223005 86 82 2.0 6.0 0.00 0.00 0.00 72 1014.7
20260901222525 86 71 2.0 5.0 0.00 0.00 0.00 72 1014.6
20260901222004 86 47 2.0 4.0 0.00 0.00 0.00 72 1014.7
20260901221504 86 61 2.0 4.0 0.00 0.00 0.00 72 1014.7
20260901221004 86 78 1.0 3.0 0.00 0.00 0.00 72 1014.8
20260901220504 86 70 2.0 5.0 0.00 0.00 0.00 71 1014.7
20260901220025 86 102 2.0 13.0 0.00 0.00 0.00 71 1014.9
20260901215504 86 130 2.0 13.0 0.00 0.00 0.00 71 1015.0
20260901215004 86 107 1.0 4.0 0.00 0.00 0.00 71 1014.9
20260901214504 86 84 2.0 6.0 0.00 0.00 0.00 71 1014.9
20260901214025 86 77 2.0 6.0 0.00 0.00 0.00 71 1015.0
20260901213504 86 139 2.0 10.0 0.00 0.00 0.00 72 1015.1
20260901213004 86 144 2.0 10.0 0.00 0.00 0.00 72 1015.2
20260901212504 86 124 2.0 7.0 0.00 0.00 0.00 75 1015.3
20260901212004 85 156 3.0 8.0 0.00 0.00 0.00 74 1015.4
20260901211504 85 163 3.0 11.0 0.00 0.00 0.00 75 1015.5
20260901211004 86 150 2.0 11.0 0.00 0.00 0.00 75 1015.6
20260901210525 86 137 2.0 6.0 0.00 0.00 0.00 76 1015.6
20260901210025 86 150 3.0 8.0 0.00 0.00 0.00 76 1015.6
20260901205504 85 125 3.0 8.0 0.00 0.00 0.00 76 1015.8
20260901205004 85 5 2.0 4.0 0.00 0.00 0.00 76 1015.8
20260901204504 85 12 1.0 4.0 0.00 0.00 0.00 77 1015.8
20260901204004 85 63 1.0 2.0 0.00 0.00 0.00 77 1015.8
20260901203504 85 51 1.0 1.0 0.00 0.00 0.00 78 1015.8
20260901200504 95 146 3.0 10.0 0.00 0.00 0.00 55 1015.1
20260901200004 96 125 3.0 10.0 0.00 0.00 0.00 54 1015.2
20260901195504 96 109 2.0 8.0 0.00 0.00 0.00 55 1015.2
20260901195004 96 132 3.0 9.0 0.00 0.00 0.00 57 1015.1
20260901194525 94 124 2.0 9.0 0.00 0.00 0.00 56 1015.3
20260901194025 93 117 3.0 8.0 0.00 0.00 0.00 61 1015.5
20260901193504 93 126 3.0 8.0 0.00 0.00 0.00 59 1015.5
20260901193004 92 123 3.0 10.0 0.00 0.00 0.00 60 1015.6
20260901192504 92 118 2.0 10.0 0.00 0.00 0.00 61 1015.5
20260901192004 92 118 2.0 8.0 0.00 0.00 0.00 61 1015.5
20260901191504 93 103 3.0 8.0 0.00 0.00 0.00 58 1015.5
20260901191004 94 84 2.0 7.0 0.00 0.00 0.00 57 1015.4
20260901190504 95 123 2.0 9.0 0.00 0.00 0.00 54 1015.3
20260901190005 95 124 2.0 9.0 0.00 0.00 0.00 54 1015.3
20260901185504 95 51 3.0 7.0 0.00 0.00 0.00 54 1015.4
20260901185004 95 51 2.0 7.0 0.00 0.00 0.00 54 1015.4
20260901184504 95 109 2.0 6.0 0.00 0.00 0.00 55 1015.5
20260901184004 95 120 2.0 6.0 0.00 0.00 0.00 55 1015.4
20260901183504 95 104 2.0 7.0 0.00 0.00 0.00 55 1015.4
20260901183004 94 112 2.0 7.0 0.00 0.00 0.00 58 1015.5
20260901182504 93 122 2.0 5.0 0.00 0.00 0.00 57 1015.5
20260901182004 94 104 2.0 5.0 0.00 0.00 0.00 57 1015.5
20260901181504 94 76 2.0 6.0 0.00 0.00 0.00 57 1015.7
20260901181004 94 36 3.0 7.0 0.00 0.00 0.00 56 1015.6
20260901180504 94 86 3.0 7.0 0.00 0.00 0.00 56 1015.7
20260901180004 94 50 3.0 9.0 0.00 0.00 0.00 56 1015.9
20260901175504 94 56 3.0 9.0 0.00 0.00 0.00 55 1016.0
20260901175004 94 57 3.0 10.0 0.00 0.00 0.00 56 1016.0
20260901174504 94 10 3.0 11.0 0.00 0.00 0.00 56 1016.2
20260901174004 94 15 3.0 11.0 0.00 0.00 0.00 56 1016.3
20260901173504 95 25 3.0 9.0 0.00 0.00 0.00 57 1016.5
20260901173004 95 28 2.0 9.0 0.00 0.00 0.00 55 1016.5
20260901172504 95 77 2.0 7.0 0.00 0.00 0.00 57 1016.7
20260901172004 94 110 2.0 7.0 0.00 0.00 0.00 59 1016.9
20260901171504 93 111 2.0 7.0 0.00 0.00 0.00 59 1017.0
20260901171004 92 71 1.0 4.0 0.00 0.00 0.00 61 1017.2
20260901170504 92 20 2.0 6.0 0.00 0.00 0.00 62 1017.2
20260901170004 92 120 2.0 7.0 0.00 0.00 0.00 61 1017.4
20260901165504 93 130 2.0 7.0 0.00 0.00 0.00 61 1017.5
20260901165004 93 123 3.0 6.0 0.00 0.00 0.00 61 1017.5
20260901164504 92 111 3.0 7.0 0.00 0.00 0.00 62 1017.6
20260901164025 91 95 3.0 9.0 0.00 0.00 0.00 63 1017.7
20260901163504 91 42 2.0 9.0 0.00 0.00 0.00 64 1017.7
20260901163004 91 65 2.0 5.0 0.00 0.00 0.00 65 1017.8
20260901162504 91 30 2.0 5.0 0.00 0.00 0.00 66 1017.9
20260901162003 90 344 3.0 12.0 0.00 0.00 0.00 66 1018.0
20260901161504 89 356 3.0 12.0 0.00 0.00 0.00 67 1018.0
20260901161025 88 60 1.0 4.0 0.00 0.00 0.00 70 1018.0
20260901160504 88 19 2.0 5.0 0.00 0.00 0.00 70 1018.1
20260901160004 88 14 2.0 5.0 0.00 0.00 0.00 70 1018.1
20260901155504 89 13 2.0 9.0 0.00 0.00 0.00 69 1018.0
20260901155004 90 35 2.0 9.0 0.00 0.00 0.00 70 1018.0
20260901154525 89 55 2.0 7.0 0.00 0.00 0.00 70 1017.9
20260901154003 88 49 2.0 7.0 0.00 0.00 0.00 71 1017.8
20260901153504 88 69 2.0 4.0 0.00 0.00 0.00 70 1018.1
20260901153003 87 42 2.0 5.0 0.00 0.00 0.00 71 1017.9
20260901152504 87 340 3.0 10.0 0.00 0.00 0.00 72 1017.9
20260901152004 87 334 5.0 10.0 0.00 0.00 0.00 74 1018.0
20260901151504 86 341 3.0 8.0 0.00 0.00 0.00 74 1018.1
20260901151025 86 343 2.0 8.0 0.00 0.00 0.00 75 1018.1
20260901150504 85 323 2.0 8.0 0.00 0.00 0.00 75 1018.3
20260901150025 85 337 2.0 6.0 0.00 0.00 0.00 76 1018.2
20260901145504 85 349 3.0 8.0 0.00 0.00 0.00 76 1018.4
20260901145004 84 359 2.0 8.0 0.00 0.00 0.00 76 1018.4
20260901144504 84 1 2.0 5.0 0.00 0.00 0.00 76 1018.5
20260901144004 84 3 2.0 5.0 0.00 0.00 0.00 76 1018.5
20260901143504 84 4 1.0 4.0 0.00 0.00 0.00 76 1018.4
20260901143004 84 1 2.0 4.0 0.00 0.00 0.00 76 1018.3
20260901142503 83 2 2.0 4.0 0.00 0.00 0.00 76 1018.3
20260901142024 83 360 2.0 4.0 0.00 0.00 0.00 76 1018.4
20260901141503 82 340 1.0 4.0 0.00 0.00 0.00 76 1018.3
20260901141024 82 336 1.0 4.0 0.00 0.00 0.00 76 1018.3
20260901140503 81 342 2.0 4.0 0.00 0.00 0.00 76 1018.2
20260901140004 81 344 2.0 5.0 0.00 0.00 0.00 75 1018.3
20260901135504 80 346 2.0 5.0 0.00 0.00 0.00 74 1018.3
20260901135024 79 343 2.0 4.0 0.00 0.00 0.00 73 1018.4
20260901134503 78 336 2.0 3.0 0.00 0.00 0.00 71 1018.4
20260901134003 78 330 2.0 3.0 0.00 0.00 0.00 68 1018.3
20260901133504 77 333 1.0 3.0 0.00 0.00 0.00 64 1018.3
20260901133004 76 342 1.0 2.0 0.00 0.00 0.00 62 1018.4
20260901132504 76 343 1.0 2.0 0.00 0.00 0.00 59 1018.3
20260901132004 75 341 0.0 1.0 0.00 0.00 0.00 56 1018.4
20260901131504 75 0 0.0 0.0 0.00 0.00 0.00 55 1018.3
20260901131004 74 0 0.0 0.0 0.00 0.00 0.00 53 1018.2
20260901130504 74 0 0.0 0.0 0.00 0.00 0.00 52 1018.2
20260901130004 74 0 0.0 0.0 0.00 0.00 0.00 52 1018.2
20260901125504 74 0 0.0 0.0 0.00 0.00 0.00 51 1018.1
20260901125004 73 317 0.0 1.0 0.00 0.00 0.00 51 1018.1
20260901124504 73 317 0.0 1.0 0.00 0.00 0.00 50 1018.0
20260901124004 73 317 0.0 1.0 0.00 0.00 0.00 50 1017.8
20260901123504 73 324 0.0 1.0 0.00 0.00 0.00 49 1017.8
20260901123004 73 0 0.0 0.0 0.00 0.00 0.00 49 1017.8
20260901122504 73 0 0.0 0.0 0.00 0.00 0.00 49 1017.8
20260901122004 73 0 0.0 0.0 0.00 0.00 0.00 49 1017.5
20260901121504 72 0 0.0 0.0 0.00 0.00 0.00 49 1017.4
20260901121004 73 0 0.0 0.0 0.00 0.00 0.00 50 1017.4
20260901120503 73 0 0.0 0.0 0.00 0.00 0.00 50 1017.4
20260901120025 73 0 0.0 0.0 0.00 0.00 0.00 50 1017.4
20260901115504 73 0 0.0 0.0 0.00 0.00 0.00 51 1017.5
20260901115004 73 0 0.0 0.0 0.00 0.00 0.00 51 1017.5
20260901114503 73 0 0.0 0.0 0.00 0.00 0.00 52 1017.5
20260901114004 73 0 0.0 0.0 0.00 0.00 0.00 52 1017.4
20260901113504 73 0 0.0 0.0 0.00 0.00 0.00 53 1017.4
20260901113025 73 0 0.0 0.0 0.00 0.00 0.00 53 1017.4
20260901112504 73 0 0.0 0.0 0.00 0.00 0.00 54 1017.3
20260901112025 73 0 0.0 0.0 0.00 0.00 0.00 55 1017.3
20260901111524 73 0 0.0 0.0 0.00 0.00 0.00 55 1017.3
20260901111004 73 0 0.0 0.0 0.00 0.00 0.00 56 1017.3
20260901110503 73 0 0.0 0.0 0.00 0.00 0.00 56 1017.3
20260901110004 73 0 0.0 0.0 0.00 0.00 0.00 55 1017.3
20260901105503 73 0 0.0 0.0 0.00 0.00 0.00 55 1017.2
20260901105004 74 0 0.0 0.0 0.00 0.00 0.00 56 1017.2
20260901104504 74 0 0.0 0.0 0.00 0.00 0.00 56 1017.1
20260901104004 74 0 0.0 0.0 0.00 0.00 0.00 56 1017.0
20260901103503 74 0 0.0 0.0 0.00 0.00 0.00 56 1017.0
20260901103004 74 0 0.0 0.0 0.00 0.00 0.00 57 1016.9
20260901102524 74 0 0.0 0.0 0.00 0.00 0.00 57 1016.9
20260901102004 74 0 0.0 0.0 0.00 0.00 0.00 57 1016.9
20260901101504 74 0 0.0 0.0 0.00 0.00 0.00 57 1017.0
20260901101004 74 0 0.0 0.0 0.00 0.00 0.00 58 1017.0
20260901100503 74 0 0.0 0.0 0.00 0.00 0.00 58 1017.0
20260901100025 74 0 0.0 0.0 0.00 0.00 0.00 58 1017.0
20260901095525 74 0 0.0 0.0 0.00 0.00 0.00 58 1017.1
20260901095003 74 0 0.0 0.0 0.00 0.00 0.00 58 1017.0
20260901094503 74 0 0.0 0.0 0.00 0.00 0.00 58 1017.1
20260901094003 75 0 0.0 0.0 0.00 0.00 0.00 59 1017.1
20260901093524 75 0 0.0 0.0 0.00 0.00 0.00 60 1017.0
20260901093004 75 0 0.0 0.0 0.00 0.00 0.00 60 1017.0
20260901092504 75 0 0.0 0.0 0.00 0.00 0.00 61 1017.0
20260901092003 75 0 0.0 0.0 0.00 0.00 0.00 62 1016.9
20260901091504 75 0 0.0 0.0 0.00 0.00 0.00 62 1017.0
20260901091003 75 0 0.0 0.0 0.00 0.00 0.00 62 1017.0
20260901090525 75 0 0.0 0.0 0.00 0.00 0.00 62 1017.0
20260901090004 75 0 0.0 0.0 0.00 0.00 0.00 62 1017.0
20260901085503 76 0 0.0 0.0 0.00 0.00 0.00 63 1017.1
20260901085003 76 0 0.0 0.0 0.00 0.00 0.00 64 1017.1
20260901084503 76 0 0.0 0.0 0.00 0.00 0.00 64 1017.0
20260901084003 76 0 0.0 0.0 0.00 0.00 0.00 64 1017.1
20260901083504 76 0 0.0 0.0 0.00 0.00 0.00 65 1017.1
20260901083003 76 0 0.0 0.0 0.00 0.00 0.00 65 1017.2
20260901082524 76 0 0.0 0.0 0.00 0.00 0.00 65 1017.1
20260901082024 76 0 0.0 0.0 0.00 0.00 0.00 66 1017.1
20260901081503 76 0 0.0 0.0 0.00 0.00 0.00 67 1017.1
20260901081004 76 0 0.0 0.0 0.00 0.00 0.00 67 1017.0
20260901080503 77 0 0.0 0.0 0.00 0.00 0.00 68 1016.9
20260901080003 77 0 0.0 0.0 0.00 0.00 0.00 69 1017.0
20260901075503 77 0 0.0 0.0 0.00 0.00 0.00 69 1017.1
20260901075004 77 0 0.0 0.0 0.00 0.00 0.00 69 1017.1
20260901074503 77 0 0.0 0.0 0.00 0.00 0.00 70 1017.1
20260901074004 78 0 0.0 0.0 0.00 0.00 0.00 72 1017.1
20260901073503 78 0 0.0 0.0 0.00 0.00 0.00 72 1017.1
20260901073003 78 0 0.0 0.0 0.00 0.00 0.00 72 1017.1
20260901072524 78 0 0.0 0.0 0.00 0.00 0.00 73 1017.1
20260901072003 78 0 0.0 0.0 0.00 0.00 0.00 73 1017.0
20260901071525 78 0 0.0 0.0 0.00 0.00 0.00 73 1017.1
20260901071004 78 0 0.0 0.0 0.00 0.00 0.00 73 1017.1
20260901070503 78 0 0.0 0.0 0.00 0.00 0.00 74 1017.1
20260901070024 78 0 0.0 0.0 0.00 0.00 0.00 74 1017.1
20260901065503 78 0 0.0 0.0 0.00 0.00 0.00 74 1017.2
20260901065003 79 0 0.0 0.0 0.00 0.00 0.00 74 1017.3
20260901064503 79 0 0.0 0.0 0.00 0.00 0.00 75 1017.3
20260901064003 79 0 0.0 0.0 0.00 0.00 0.00 75 1017.4
20260901063524 79 0 0.0 0.0 0.00 0.00 0.00 75 1017.5
20260901063003 79 0 0.0 0.0 0.00 0.00 0.00 75 1017.3
20260901062503 79 0 0.0 0.0 0.00 0.00 0.00 76 1017.3
20260901062003 79 0 0.0 0.0 0.00 0.00 0.00 76 1017.4
20260901061503 79 0 0.0 0.0 0.00 0.00 0.00 76 1017.4
20260901061003 79 0 0.0 0.0 0.00 0.00 0.00 76 1017.3
20260901060524 79 0 0.0 0.0 0.00 0.00 0.00 77 1017.2
20260901060024 80 0 0.0 0.0 0.00 0.00 0.00 77 1017.3
20260901055503 80 0 0.0 0.0 0.00 0.00 0.00 77 1017.3
20260901055024 80 0 0.0 0.0 0.00 0.00 0.00 78 1017.3
20260901054504 80 0 0.0 0.0 0.00 0.00 0.00 78 1017.3
20260901054003 80 0 0.0 0.0 0.00 0.00 0.00 78 1017.2
20260901053503 80 0 0.0 0.0 0.00 0.00 0.00 78 1017.2
20260901053003 80 0 0.0 0.0 0.00 0.00 0.00 78 1017.2
20260901052503 81 0 0.0 0.0 0.00 0.00 0.00 78 1017.3
20260901052004 81 0 0.0 0.0 0.00 0.00 0.00 78 1017.1
20260901051503 81 0 0.0 0.0 0.00 0.00 0.00 78 1017.1
20260901051003 81 0 0.0 0.0 0.00 0.00 0.00 78 1017.2
20260901050503 81 0 0.0 0.0 0.00 0.00 0.00 78 1017.1
20260901050003 82 0 0.0 0.0 0.00 0.00 0.00 78 1017.1
20260901045524 82 0 0.0 0.0 0.00 0.00 0.00 78 1017.0
20260901045003 82 0 0.0 0.0 0.00 0.00 0.00 78 1017.0
20260901044505 82 0 0.0 0.0 0.00 0.00 0.00 77 1017.0
20260901044024 82 0 0.0 0.0 0.00 0.00 0.00 77 1016.9
20260901043503 82 0 0.0 0.0 0.00 0.00 0.00 77 1016.9
20260901043003 82 0 0.0 0.0 0.00 0.00 0.00 77 1016.9
20260901042503 83 0 0.0 0.0 0.00 0.00 0.00 77 1016.9
20260901042003 83 0 0.0 0.0 0.00 0.00 0.00 77 1016.9
20260901041503 83 0 0.0 0.0 0.00 0.00 0.00 77 1016.8
20260901041003 83 0 0.0 0.0 0.00 0.00 0.00 77 1016.8
20260901040503 83 155 0.0 1.0 0.00 0.00 0.00 76 1016.8
20260901040024 83 158 0.0 5.0 0.00 0.00 0.00 76 1016.8
20260901035503 83 161 0.0 5.0 0.00 0.00 0.00 76 1016.7
20260901035003 84 196 0.0 3.0 0.00 0.00 0.00 76 1016.5
20260901034504 84 0 0.0 0.0 0.00 0.00 0.00 75 1016.6
20260901034003 84 95 0.0 1.0 0.00 0.00 0.00 74 1016.6
20260901033503 84 104 0.0 2.0 0.00 0.00 0.00 74 1016.7
20260901033003 84 125 0.0 2.0 0.00 0.00 0.00 74 1016.5
20260901032503 84 158 0.0 2.0 0.00 0.00 0.00 74 1016.5
20260901032003 84 157 0.0 2.0 0.00 0.00 0.00 74 1016.4
20260901031524 84 170 0.0 2.0 0.00 0.00 0.00 74 1016.4
20260901031003 84 170 0.0 3.0 0.00 0.00 0.00 73 1016.4
20260901030503 84 150 0.0 3.0 0.00 0.00 0.00 74 1016.3